Statesville, NC

9:40 AM EDT on May 26, 2017 (GMT -0400)
Statesville Municipal

Weather History for KSVH - February, 2014

Change the Weather History Date:

Wednesday, February 26, 2014

  Actual Average (KHKY) Record (KHKY)
Temperature  
Mean Temperature 39 °F -  
Max Temperature 49 °F 52 °F 80 °F (1977)
Min Temperature 29 °F 31 °F 10 °F (1967)
Degree Days  
Heating Degree Days 26    
Moisture  
Dew Point 20 °F    
Average Humidity 48    
Maximum Humidity 61    
Minimum Humidity 33    
Precipitation  
Precipitation 0.00 in - - ()
Sea Level Pressure  
Sea Level Pressure 29.86 in    
Wind  
Wind Speed 5 mph (NNE)    
Max Wind Speed 12 mph    
Max Gust Speed 20 mph    
Visibility 10 miles    
Events      
Averages and records for this station are not official NWS values.
T = Trace of Precipitation, MM = Missing Value Source: NWS Daily Summary

Daily Weather History Graph

Daily Weather History Graph

Search for Another Location

Airport or City:

Trip Planner

Search our weather history database for the weather conditions in past years. The results will help you decide how hot, cold, wet, or windy it might be!

Date:

Astronomy

Feb. 26, 2014 Rise Set
Actual Time 6:57 AM EST 6:16 PM EST
Civil Twilight 6:31 AM EST 6:41 PM EST
Nautical Twilight 6:02 AM EST 7:11 PM EST
Astronomical Twilight 5:32 AM EST 7:41 PM EST
Moon 4:38 AM EST 3:32 PM EST
Length of Visible Light 12h 09m
Length of Day
11h 18m
Waning Crescent, 10% of the Moon is Illuminated
Feb 26
Waning Crescent
Mar 1
New
Mar 8
First Quarter
Mar 16
Full
Mar 23
Last Quarter

Hourly Weather History & Observations

Time (EST) Temp. Windchill Dew Point Humidity Pressure Visibility Wind Dir Wind Speed Gust Speed Precip Events Conditions
12:15 AM 40.3 °F 36.3 °F 21.0 °F 46% 29.93 in 10.0 mi ENE 5.8 mph - N/A   Scattered Clouds
12:35 AM 39.6 °F 36.3 °F 21.2 °F 48% 29.92 in 10.0 mi ENE 4.6 mph - N/A   Scattered Clouds
12:55 AM 39.4 °F 36.1 °F 21.7 °F 49% 29.92 in 10.0 mi ENE 4.6 mph - N/A   Mostly Cloudy
1:10 AM 38.8 °F 36.5 °F 21.7 °F 50% 29.92 in 10.0 mi ENE 3.5 mph - N/A   Mostly Cloudy
1:35 AM 38.8 °F 36.5 °F 21.9 °F 51% 29.92 in 10.0 mi East 3.5 mph - N/A   Overcast
1:55 AM 38.3 °F 32.5 °F 21.0 °F 50% 29.88 in 10.0 mi ESE 8.1 mph - N/A   Mostly Cloudy
2:15 AM 37.4 °F 33.8 °F 20.8 °F 51% 29.90 in 10.0 mi East 4.6 mph - N/A   Scattered Clouds
2:35 AM 37.9 °F 35.5 °F 21.4 °F 51% 29.90 in 10.0 mi ENE 3.5 mph - N/A   Mostly Cloudy
2:55 AM 38.3 °F 34.8 °F 20.3 °F 48% 29.91 in 10.0 mi NE 4.6 mph - N/A   Overcast
3:15 AM 38.3 °F 34.8 °F 20.7 °F 49% 29.90 in 10.0 mi East 4.6 mph - N/A   Overcast
3:35 AM 37.8 °F 34.2 °F 20.7 °F 50% 29.89 in 10.0 mi East 4.6 mph - N/A   Overcast
3:55 AM 37.4 °F 32.8 °F 20.3 °F 50% 29.88 in 10.0 mi East 5.8 mph - N/A   Overcast
4:15 AM 35.6 °F 31.7 °F 20.5 °F 54% 29.87 in 10.0 mi East 4.6 mph - N/A   Overcast
4:35 AM 35.8 °F 31.9 °F 20.5 °F 54% 29.87 in 10.0 mi ENE 4.6 mph - N/A   Overcast
4:55 AM 35.6 °F 32.8 °F 19.4 °F 52% 29.87 in 10.0 mi NE 3.5 mph - N/A   Scattered Clouds
5:15 AM 36.0 °F 33.3 °F 19.8 °F 52% 29.88 in 10.0 mi NNE 3.5 mph - N/A   Mostly Cloudy
5:35 AM 36.0 °F 33.3 °F 19.8 °F 52% 29.89 in 10.0 mi North 3.5 mph - N/A   Overcast
5:50 AM 36.0 °F - 20.3 °F 53% 29.90 in 10.0 mi Calm Calm - N/A   Overcast
6:15 AM 35.2 °F 32.4 °F 21.4 °F 57% 29.90 in 10.0 mi North 3.5 mph - N/A   Overcast
6:35 AM 34.9 °F - 22.5 °F 61% 29.91 in 10.0 mi Calm Calm - N/A   Overcast
6:55 AM 34.7 °F 31.8 °F 21.9 °F 60% 29.92 in 10.0 mi North 3.5 mph - N/A   Mostly Cloudy
7:15 AM 34.7 °F 29.6 °F 21.9 °F 60% 29.92 in 10.0 mi NNE 5.8 mph - N/A   Scattered Clouds
7:35 AM 34.7 °F 29.6 °F 21.4 °F 58% 29.93 in 10.0 mi North 5.8 mph - N/A   Mostly Cloudy
7:55 AM 35.1 °F 31.0 °F 21.4 °F 57% 29.94 in 10.0 mi NNE 4.6 mph - N/A   Overcast
8:15 AM 35.2 °F 32.4 °F 21.7 °F 58% 29.94 in 10.0 mi ENE 3.5 mph - N/A   Overcast
8:35 AM 35.6 °F 32.8 °F 21.2 °F 56% 29.94 in 10.0 mi ENE 3.5 mph - N/A   Scattered Clouds
8:55 AM 36.1 °F - 21.6 °F 56% 29.94 in 10.0 mi Calm Calm - N/A   Clear
9:15 AM 36.5 °F 32.7 °F 21.7 °F 55% 29.93 in 10.0 mi NE 4.6 mph - N/A   Clear
9:35 AM 36.7 °F 34.1 °F 21.7 °F 55% 29.92 in 10.0 mi NE 3.5 mph - N/A   Clear
9:55 AM 37.2 °F 33.6 °F 21.9 °F 54% 29.92 in 10.0 mi NE 4.6 mph - N/A   Clear
10:15 AM 37.8 °F 33.3 °F 21.9 °F 53% 29.92 in 10.0 mi NNE 5.8 mph - N/A   Clear
10:35 AM 38.3 °F 34.8 °F 22.3 °F 53% 29.91 in 10.0 mi North 4.6 mph - N/A   Clear
10:55 AM 38.8 °F 34.6 °F 21.7 °F 50% 29.90 in 10.0 mi NE 5.8 mph - N/A   Clear
11:15 AM 39.7 °F 35.6 °F 21.7 °F 49% 29.90 in 10.0 mi North 5.8 mph - N/A   Clear
11:35 AM 40.1 °F 35.3 °F 20.7 °F 46% 29.89 in 10.0 mi NNE 6.9 mph - N/A   Clear
11:55 AM 41.7 °F 37.3 °F 20.5 °F 43% 29.88 in 10.0 mi NNE 6.9 mph - N/A   Clear
12:15 PM 42.1 °F 38.4 °F 20.3 °F 42% 29.87 in 10.0 mi North 5.8 mph - N/A   Clear
12:35 PM 42.1 °F - 20.8 °F 43% 29.86 in 10.0 mi Calm Calm - N/A   Clear
12:55 PM 43.3 °F - 21.0 °F 41% 29.84 in 10.0 mi Calm Calm - N/A   Clear
1:15 PM 44.1 °F 39.5 °F 21.0 °F 40% 29.83 in 10.0 mi North 8.1 mph - N/A   Clear
1:35 PM 44.2 °F - 21.4 °F 40% 29.81 in 10.0 mi Calm Calm - N/A   Clear
1:55 PM 44.6 °F 43.1 °F 21.4 °F 40% 29.79 in 10.0 mi ESE 3.5 mph - N/A   Clear
2:15 PM 46.4 °F 41.1 °F 22.1 °F 38% 29.78 in 10.0 mi West 11.5 mph 19.6 mph N/A   Clear
2:35 PM 47.1 °F - 21.7 °F 37% 29.76 in 10.0 mi Calm Calm - N/A   Clear
2:55 PM 47.8 °F - 22.6 °F 37% 29.76 in 10.0 mi Calm Calm - N/A   Clear
3:15 PM 48.7 °F - 23.2 °F 37% 29.76 in 10.0 mi NNW 5.8 mph - N/A   Clear
3:35 PM 47.8 °F - 21.2 °F 35% 29.76 in 10.0 mi WNW 5.8 mph - N/A   Clear
3:55 PM 48.4 °F - 21.0 °F 34% 29.75 in 10.0 mi Calm Calm - N/A   Clear
4:15 PM 49.3 °F - 22.8 °F 35% 29.75 in 10.0 mi WNW 3.5 mph - N/A   Clear
4:35 PM 49.5 °F - 21.2 °F 33% 29.75 in 10.0 mi North 5.8 mph - N/A   Scattered Clouds
4:55 PM 48.9 °F - 20.7 °F 33% 29.75 in 10.0 mi North 8.1 mph - N/A   Scattered Clouds
5:15 PM 47.5 °F - 20.8 °F 35% 29.75 in 10.0 mi NNE 10.4 mph 18.4 mph N/A   Scattered Clouds
5:35 PM 44.2 °F 38.8 °F 19.9 °F 38% 29.76 in 10.0 mi North 10.4 mph - N/A   Clear
5:55 PM 42.8 °F 39.3 °F 19.6 °F 40% 29.77 in 10.0 mi NNE 5.8 mph - N/A   Clear
6:15 PM 41.0 °F 35.2 °F 19.6 °F 42% 29.78 in 10.0 mi NNE 9.2 mph - N/A   Clear
6:35 PM 40.1 °F 34.1 °F 19.2 °F 43% 29.79 in 10.0 mi North 9.2 mph - N/A   Clear
6:55 PM 39.2 °F 33.0 °F 19.0 °F 44% 29.80 in 10.0 mi North 9.2 mph - N/A   Clear
7:15 PM 38.3 °F 34.8 °F 18.7 °F 45% 29.81 in 10.0 mi NNE 4.6 mph - N/A   Clear
7:35 PM 37.0 °F 31.0 °F 18.3 °F 47% 29.82 in 10.0 mi North 8.1 mph - N/A   Clear
7:55 PM 36.3 °F 31.6 °F 18.1 °F 48% 29.83 in 10.0 mi NNE 5.8 mph - N/A   Clear
8:15 PM 35.1 °F 30.1 °F 18.1 °F 50% 29.83 in 10.0 mi NNE 5.8 mph - N/A   Clear
8:35 PM 34.5 °F 29.4 °F 18.0 °F 51% 29.83 in 10.0 mi NNE 5.8 mph - N/A   Clear
8:55 PM 33.8 °F 28.6 °F 17.4 °F 51% 29.83 in 10.0 mi NNE 5.8 mph - N/A   Clear
9:15 PM 33.4 °F 27.3 °F 16.7 °F 50% 29.84 in 10.0 mi North 6.9 mph - N/A   Clear
9:35 PM 32.9 °F 28.5 °F 16.3 °F 51% 29.84 in 10.0 mi NNE 4.6 mph - N/A   Clear
9:55 PM 32.5 °F 28.1 °F 15.8 °F 50% 29.84 in 10.0 mi NNE 4.6 mph - N/A   Clear
10:15 PM 32.0 °F 28.7 °F 15.4 °F 51% 29.84 in 10.0 mi NNE 3.5 mph - N/A   Clear
10:35 PM 32.0 °F - 14.9 °F 49% 29.84 in 10.0 mi Calm Calm - N/A   Clear
10:55 PM 32.0 °F 28.7 °F 14.7 °F 49% 29.84 in 10.0 mi NE 3.5 mph - N/A   Clear
11:15 PM 31.1 °F 27.7 °F 14.9 °F 51% 29.84 in 10.0 mi NE 3.5 mph - N/A   Clear
11:35 PM 29.5 °F - 15.6 °F 56% 29.84 in 10.0 mi Calm Calm - N/A   Clear
11:55 PM 29.3 °F - 14.9 °F 55% 29.84 in 10.0 mi Calm Calm - N/A   Clear